Temp
-6 -6 -6 -7 -7 -7 -9 -8 -8 -7 -7 -7 -6 -7 -6 -6 -6 -4 -5 -6 -6 -6 -6 -5 -6 -7 -6 -6 -7 -6 -6 -6 -7 -7 -7 -7 -8 -7 -7 -8 -8 -8 -8 -8
-6 -6 -7 -7 -7 -9 -9 -9 -8 -7 -7 -6 -7 -7 -6 -6 -6 -5 -5 -5 -5 -6 -5 -5 -6 -7 -6 -6 -6 -7 -7 -6 -7 -7 -7 -8 -8 -8 -7 -7 -7 -8 -8 -7
-6 -7 -8 -8 -7 -10 -9 -9 -9 -8 -8 -8 -8 -7 -6 -6 -6 -5 -5 -6 -5 -5 -6 -6 -5 -6 -6 -6 -6 -7 -7 -7 -7 -7 -7 -7 -7 -8 -7 -7 -7 -7 -7 -7
-7 -7 -7 -9 -8 -10 -9 -8 -9 -9 -9 -9 -8 -7 -7 -7 -6 -6 -6 -6 -4 -4 -5 -6 -6 -6 -6 -6 -6 -6 -7 -7 -6 -7 -7 -7 -7 -7 -7 -7 -7 -7 -7 -7
-8 -9 -9 -10 -9 -11 -10 -10 -10 -10 -9 -9 -8 -8 -6 -6 -7 -6 -6 -5 -5 -4 -5 -6 -6 -6 -6 -6 -6 -6 -6 -6 -6 -6 -7 -7 -6 -6 -7 -6 -6 -6 -6 -6
-9 -9 -9 -9 -9 -9 -10 -11 -10 -10 -9 -9 -9 -8 -6 -7 -7 -6 -5 -5 -4 -5 -5 -6 -7 -6 -6 -5 -6 -6 -6 -6 -6 -6 -6 -6 -6 -7 -7 -7 -6 -6 -6 -6
-9 -10 -10 -10 -9 -9 -10 -11 -10 -9 -10 -9 -9 -9 -8 -7 -6 -6 -5 -5 -4 -5 -4 -5 -6 -5 -6 -6 -5 -6 -6 -6 -6 -6 -6 -7 -6 -6 -7 -6 -6 -6 -6 -6
-11 -11 -10 -9 -10 -10 -11 -11 -10 -11 -10 -9 -9 -9 -8 -7 -6 -6 -6 -5 -5 -4 -5 -5 -4 -5 -6 -6 -6 -5 -6 -6 -6 -6 -6 -6 -6 -6 -6 -6 -6 -6 -6 -6
-11 -11 -11 -10 -10 -10 -10 -11 -11 -11 -10 -11 -9 -9 -9 -8 -7 -7 -5 -6 -6 -5 -4 -5 -5 -5 -5 -5 -6 -5 -5 -5 -6 -6 -6 -6 -6 -6 -6 -6 -6 -6 -6 -6
-11 -11 -11 -11 -10 -10 -10 -11 -11 -11 -11 -11 -10 -9 -9 -8 -8 -6 -6 -5 -5 -6 -4 -3 -5 -5 -6 -4 -5 -5 -6 -5 -5 -6 -6 -6 -6 -6 -6 -6 -6 -6 -6 -6
-10 -11 -11 -11 -11 -10 -10 -11 -11 -10 -10 -10 -9 -9 -9 -7 -8 -8 -7 -7 -6 -6 -5 -4 -5 -5 -5 -5 -5 -5 -5 -5 -5 -5 -6 -6 -6 -6 -6 -6 -6 -6 -6 -7
-10 -10 -11 -11 -10 -10 -11 -10 -9 -10 -10 -10 -10 -9 -9 -9 -7 -7 -6 -8 -7 -7 -6 -5 -5 -5 -4 -6 -5 -6 -6 -5 -5 -6 -6 -6 -6 -6 -6 -6 -6 -6 -6 -6
-11 -11 -11 -11 -11 -11 -10 -11 -10 -10 -10 -10 -10 -9 -10 -8 -8 -7 -6 -7 -7 -7 -7 -6 -5 -4 -5 -5 -5 -6 -6 -5 -5 -6 -6 -6 -6 -6 -6 -6 -6 -6 -6 -6
-10 -11 -11 -11 -11 -11 -11 -10 -10 -10 -11 -10 -9 -9 -9 -10 -10 -8 -9 -8 -8 -8 -7 -7 -6 -6 -5 -6 -6 -5 -4 -5 -5 -5 -5 -6 -6 -6 -6 -6 -6 -6 -6 -6
-10 -10 -11 -12 -12 -11 -11 -11 -10 -10 -11 -11 -9 -9 -9 -9 -10 -10 -9 -9 -9 -8 -7 -7 -7 -7 -7 -6 -6 -5 -4 -6 -6 -6 -5 -6 -6 -6 -6 -6 -6 -6 -6 -6
-11 -11 -11 -11 -12 -11 -10 -11 -11 -10 -10 -10 -10 -9 -11 -10 -10 -10 -9 -9 -9 -8 -8 -8 -8 -7 -8 -5 -7 -6 -5 -5 -6 -6 -6 -6 -6 -6 -6 -7 -6 -6 -6 -6
-11 -11 -10 -11 -12 -12 -11 -11 -11 -11 -11 -11 -10 -10 -10 -10 -10 -10 -9 -9 -9 -7 -8 -8 -8 -9 -8 -6 -7 -7 -6 -6 -5 -6 -6 -6 -6 -7 -6 -6 -6 -6 -6 -6
-11 -12 -12 -11 -12 -12 -12 -12 -12 -11 -10 -10 -10 -10 -10 -11 -10 -10 -9 -9 -9 -8 -8 -9 -9 -8 -9 -9 -8 -7 -6 -6 -6 -6 -6 -5 -7 -7 -6 -6 -6 -6 -6 -6
-12 -12 -11 -11 -11 -12 -12 -12 -12 -11 -11 -10 -10 -11 -10 -11 -10 -10 -10 -9 -8 -9 -8 -9 -9 -9 -9 -9 -9 -9 -8 -7 -7 -6 -6 -6 -7 -6 -7 -7 -6 -6 -6 -6
-12 -13 -12 -12 -12 -12 -12 -12 -12 -11 -11 -11 -11 -11 -11 -11 -11 -10 -11 -10 -10 -9 -9 -9 -9 -9 -9 -8 -8 -8 -7 -9 -8 -7 -6 -6 -6 -6 -6 -7 -6 -6 -6 -7
-12 -13 -13 -13 -12 -13 -12 -12 -12 -12 -11 -12 -11 -12 -11 -12 -13 -12 -11 -10 -9 -9 -9 -9 -9 -9 -10 -9 -8 -8 -8 -8 -8 -8 -8 -8 -8 -7 -6 -7 -6 -7 -7 -7
-13 -13 -13 -13 -13 -13 -13 -13 -13 -13 -11 -12 -12 -12 -11 -12 -12 -11 -11 -11 -10 -10 -9 -10 -9 -10 -10 -10 -9 -9 -9 -8 -9 -10 -11 -11 -10 -7 -6 -7 -7 -7 -7 -7
-13 -14 -14 -13 -13 -13 -13 -13 -13 -13 -13 -13 -13 -13 -12 -11 -12 -12 -11 -11 -11 -11 -11 -11 -10 -10 -10 -10 -10 -9 -9 -9 -9 -9 -10 -10 -10 -9 -7 -6 -7 -7 -7 -7
-13 -13 -13 -13 -12 -13 -13 -13 -13 -13 -13 -13 -13 -13 -12 -12 -12 -12 -11 -11 -11 -11 -11 -11 -11 -10 -10 -10 -10 -10 -10 -9 -9 -9 -9 -9 -10 -10 -10 -8 -6 -7 -7 -6
-13 -13 -13 -14 -14 -13 -13 -13 -13 -13 -13 -13 -13 -13 -13 -13 -13 -13 -12 -12 -12 -11 -11 -11 -11 -11 -10 -10 -9 -10 -10 -10 -9 -9 -10 -9 -9 -9 -10 -10 -9 -9 -8 -7
-13 -13 -13 -14 -14 -14 -13 -13 -14 -13 -13 -13 -13 -13 -13 -13 -13 -13 -13 -13 -12 -12 -12 -11 -11 -11 -11 -11 -11 -10 -10 -10 -10 -10 -10 -10 -10 -9 -9 -10 -10 -10 -10 -10
Height
5863 5866 5869 5871 5873 5875 5877 5878 5877 5882 5885 5887 5889 5891 5891 5891 5892 5894 5893 5892 5893 5893 5895 5894 5895 5894 5896 5897 5898 5900 5903 5907 5908 5911 5911 5911 5913 5916 5920 5924 5926 5931 5930 5935
5862 5864 5867 5867 5870 5872 5874 5876 5875 5880 5879 5879 5884 5889 5891 5891 5891 5891 5892 5892 5890 5890 5894 5895 5895 5895 5896 5898 5900 5900 5903 5907 5910 5910 5911 5913 5914 5918 5920 5925 5926 5932 5934 5935
5859 5860 5862 5865 5865 5869 5873 5874 5874 5876 5873 5878 5878 5885 5886 5887 5888 5889 5888 5890 5890 5889 5891 5894 5895 5896 5898 5898 5901 5902 5904 5908 5910 5912 5913 5915 5916 5917 5922 5924 5925 5931 5934 5934
5856 5857 5857 5862 5864 5867 5870 5867 5869 5872 5875 5879 5879 5880 5884 5884 5885 5887 5887 5887 5890 5890 5890 5893 5895 5896 5897 5898 5900 5903 5906 5909 5912 5914 5915 5918 5918 5920 5924 5927 5927 5929 5934 5938
5853 5855 5856 5857 5862 5863 5868 5866 5867 5869 5874 5875 5878 5876 5879 5881 5884 5885 5885 5884 5885 5884 5888 5889 5894 5895 5896 5898 5900 5904 5906 5910 5913 5917 5917 5920 5920 5923 5924 5928 5930 5931 5932 5936
5853 5854 5856 5857 5857 5859 5865 5862 5866 5867 5870 5873 5872 5871 5871 5877 5881 5882 5881 5880 5879 5880 5885 5889 5893 5896 5896 5897 5899 5902 5906 5910 5913 5916 5918 5920 5922 5923 5926 5927 5930 5931 5932 5935
5852 5854 5856 5855 5854 5856 5859 5860 5862 5865 5866 5868 5869 5869 5870 5871 5874 5876 5878 5879 5879 5882 5885 5890 5892 5894 5895 5897 5900 5900 5905 5909 5913 5916 5918 5920 5922 5924 5925 5928 5931 5933 5933 5935
5851 5851 5853 5854 5853 5854 5855 5859 5860 5859 5860 5862 5862 5863 5865 5866 5870 5871 5872 5876 5876 5879 5884 5889 5891 5891 5896 5898 5899 5901 5903 5909 5912 5915 5918 5919 5922 5926 5926 5927 5930 5933 5934 5935
5850 5851 5851 5851 5851 5852 5854 5854 5859 5859 5857 5857 5858 5859 5861 5864 5863 5866 5867 5868 5873 5876 5882 5887 5889 5890 5892 5897 5898 5899 5903 5907 5912 5915 5919 5920 5921 5923 5926 5928 5928 5929 5932 5935
5849 5849 5850 5850 5851 5852 5852 5854 5854 5854 5853 5854 5852 5853 5856 5858 5859 5860 5866 5865 5862 5869 5873 5879 5884 5887 5889 5893 5897 5898 5902 5905 5909 5913 5917 5920 5921 5923 5925 5926 5927 5929 5930 5932
5849 5849 5849 5850 5848 5848 5848 5850 5850 5849 5850 5849 5850 5853 5851 5849 5852 5850 5855 5857 5856 5858 5868 5872 5879 5881 5885 5889 5894 5894 5900 5902 5905 5909 5913 5916 5920 5923 5923 5924 5925 5928 5930 5932
5843 5845 5847 5845 5845 5848 5847 5844 5846 5845 5845 5845 5846 5849 5850 5848 5846 5847 5850 5845 5849 5849 5857 5866 5872 5876 5880 5883 5887 5891 5892 5896 5900 5904 5908 5911 5913 5918 5922 5923 5924 5925 5927 5929
5844 5845 5842 5840 5843 5844 5844 5843 5846 5844 5842 5842 5843 5848 5844 5842 5843 5849 5815 5840 5843 5846 5852 5862 5867 5871 5875 5877 5884 5887 5886 5888 5893 5899 5902 5906 5909 5912 5915 5919 5922 5924 5925 5928
5836 5837 5838 5837 5835 5840 5839 5839 5838 5838 5836 5840 5836 5842 5841 5841 5840 5834 5830 5816 5833 5842 5852 5850 5851 5865 5869 5869 5875 5870 5871 5886 5889 5893 5897 5902 5904 5907 5911 5914 5916 5919 5922 5925
5831 5833 5833 5834 5832 5835 5834 5836 5834 5834 5835 5836 5836 5837 5838 5840 5840 5838 5841 5841 5840 5849 5853 5855 5855 5859 5863 5865 5870 5870 5848 5879 5884 5888 5891 5894 5899 5901 5905 5910 5913 5915 5917 5919
5826 5829 5829 5830 5830 5829 5829 5829 5830 5830 5830 5833 5830 5831 5835 5837 5839 5843 5843 5844 5845 5847 5848 5852 5852 5854 5854 5859 5860 5866 5859 5874 5877 5881 5882 5887 5888 5893 5897 5901 5906 5909 5910 5913
5821 5821 5823 5825 5825 5825 5828 5827 5827 5825 5826 5825 5825 5829 5830 5832 5833 5840 5839 5844 5846 5845 5846 5848 5849 5849 5848 5853 5853 5855 5857 5860 5865 5873 5872 5879 5881 5883 5888 5892 5896 5900 5902 5905
5816 5817 5817 5820 5821 5821 5822 5821 5823 5819 5819 5821 5822 5825 5827 5829 5830 5834 5837 5840 5842 5843 5842 5843 5845 5846 5845 5847 5848 5847 5849 5851 5856 5866 5862 5859 5874 5875 5879 5884 5888 5891 5894 5898
5811 5810 5810 5813 5815 5818 5816 5818 5820 5817 5816 5815 5819 5816 5821 5824 5828 5828 5830 5832 5836 5837 5837 5840 5842 5843 5845 5846 5848 5853 5851 5847 5848 5854 5853 5859 5865 5868 5872 5874 5880 5883 5886 5888
5805 5805 5805 5809 5809 5810 5810 5813 5812 5809 5807 5809 5810 5809 5817 5820 5820 5822 5824 5825 5825 5829 5832 5835 5837 5838 5841 5842 5842 5845 5848 5845 5843 5846 5848 5853 5852 5853 5860 5866 5872 5876 5878 5881
5799 5800 5800 5803 5804 5804 5802 5807 5808 5808 5808 5804 5808 5810 5813 5813 5817 5817 5821 5823 5823 5823 5825 5827 5830 5832 5833 5834 5836 5838 5840 5839 5839 5838 5842 5839 5842 5847 5853 5859 5863 5867 5869 5871
5795 5795 5797 5797 5799 5797 5798 5801 5805 5804 5801 5798 5800 5805 5809 5810 5812 5812 5814 5814 5817 5818 5817 5818 5820 5823 5827 5828 5830 5830 5833 5835 5834 5833 5836 5837 5838 5838 5844 5848 5851 5856 5859 5862
5789 5791 5790 5792 5793 5794 5795 5796 5800 5799 5798 5793 5790 5795 5797 5797 5799 5799 5806 5809 5810 5810 5810 5810 5812 5814 5817 5821 5823 5824 5824 5827 5830 5829 5829 5830 5831 5831 5833 5835 5839 5844 5847 5849
5783 5785 5786 5787 5790 5791 5792 5791 5794 5794 5791 5790 5790 5791 5792 5791 5796 5797 5797 5800 5801 5802 5804 5804 5805 5807 5808 5810 5814 5817 5817 5819 5822 5825 5826 5825 5825 5825 5825 5823 5829 5831 5832 5837
5778 5780 5781 5782 5785 5786 5785 5783 5786 5789 5785 5786 5786 5787 5786 5785 5789 5791 5793 5793 5793 5795 5796 5796 5797 5799 5800 5802 5804 5808 5810 5811 5813 5814 5817 5821 5819 5820 5821 5822 5819 5819 5820 5824
5774 5776 5777 5778 5776 5775 5780 5779 5779 5779 5780 5780 5780 5780 5780 5779 5779 5783 5787 5787 5787 5788 5789 5790 5791 5792 5793 5794 5795 5797 5801 5804 5805 5806 5808 5811 5814 5812 5813 5816 5816 5816 5817 5818
Wind_Speed
17 17 15 14 17 11 9 17 22 13 11 12 2 7 6 3 1 3 9 8 10 9 9 6 9 10 9 11 9 9 8 11 9 12 14 15 14 14 15 17 18 18 19 20
13 12 12 17 17 6 11 14 16 15 14 12 7 10 11 6 3 5 4 8 13 13 11 11 8 10 11 11 10 8 7 6 6 6 8 12 15 14 12 12 16 21 19 18
13 16 14 16 17 15 12 12 19 16 26 10 9 8 11 10 10 7 7 7 16 20 16 12 12 12 13 12 10 9 8 7 8 8 9 11 11 12 12 14 14 21 21 18
11 15 16 15 18 16 11 11 23 21 16 15 20 20 4 10 10 9 7 6 7 19 18 19 13 13 12 12 10 9 9 8 9 9 7 7 10 11 13 16 15 13 17 19
11 9 14 15 20 21 25 26 23 21 16 13 18 22 15 10 9 11 8 10 14 23 26 25 18 16 16 15 14 11 11 10 9 9 10 10 10 10 11 12 14 15 16 18
3 4 6 9 15 15 25 24 23 24 18 7 13 17 19 12 10 9 15 11 10 23 25 28 23 18 15 15 14 13 12 11 10 11 11 11 12 11 11 12 13 13 16 17
9 8 6 8 6 14 26 16 12 6 10 18 15 18 20 19 14 6 3 4 8 18 19 21 25 19 15 14 14 14 13 14 12 12 11 10 12 13 12 11 12 13 13 12
10 17 17 10 8 9 11 15 12 13 21 16 22 22 18 20 14 14 14 9 12 17 20 16 18 23 20 15 17 14 15 16 15 14 13 11 11 12 11 10 9 10 11 13
10 13 14 13 5 7 8 7 1 17 16 15 15 23 31 22 18 18 25 15 17 17 22 21 20 23 16 18 17 16 16 17 17 17 14 13 13 11 12 11 10 8 9 9
12 7 6 13 10 6 12 12 18 20 20 18 23 18 20 26 20 22 26 21 22 23 21 21 25 20 21 21 19 17 18 18 19 19 18 17 17 16 15 15 13 13 14 12
15 11 6 8 15 12 14 19 21 23 25 26 24 15 17 23 25 29 26 30 27 26 28 21 27 24 24 22 19 19 20 20 21 21 22 21 20 19 18 16 15 15 15 13
24 20 10 11 14 11 18 23 23 26 28 32 30 23 25 23 25 26 16 28 19 21 26 25 31 28 29 28 27 24 23 22 23 24 24 24 24 22 21 21 19 19 18 17
17 16 16 15 14 16 19 28 21 24 29 32 35 26 15 19 21 25 8 18 34 24 26 23 25 29 27 33 30 28 27 28 28 27 28 26 25 23 24 23 22 21 20 20
18 21 25 13 14 12 11 9 13 17 18 27 29 36 39 29 28 33 12 12 9 15 18 18 18 29 33 31 33 38 35 31 31 31 30 28 27 26 26 25 23 21 21 21
16 18 25 24 14 10 10 12 18 19 15 15 29 31 34 27 21 24 23 15 12 14 17 19 21 25 30 29 34 46 35 36 31 36 32 32 31 29 27 26 25 25 25 23
16 15 23 31 23 25 15 17 13 15 14 22 28 22 25 22 16 13 10 17 19 20 21 22 23 25 26 25 40 43 34 44 37 37 37 38 34 33 30 29 29 27 27 27
18 21 23 26 31 22 21 19 16 23 16 18 26 19 22 27 25 23 19 17 18 22 23 24 21 15 24 28 42 43 52 37 41 41 29 44 39 35 33 31 31 31 30 29
24 20 21 18 22 24 17 21 19 26 22 23 25 19 9 13 16 15 14 25 20 18 21 22 19 22 23 18 20 26 26 24 38 48 48 46 40 37 38 35 35 34 33 31
23 24 25 19 20 17 21 18 16 21 27 33 18 12 20 14 26 22 19 20 26 30 20 22 25 25 25 24 27 21 19 34 33 51 35 31 34 33 43 39 38 35 34 34
18 19 25 16 19 21 22 17 12 17 23 23 23 31 20 22 13 14 10 18 17 24 25 24 27 27 26 25 28 27 26 17 24 34 42 46 47 38 31 34 37 38 37 37
19 17 19 17 18 22 26 26 23 23 29 30 31 29 23 29 10 25 25 18 21 22 26 31 29 30 27 24 28 26 25 28 28 20 26 19 37 49 43 43 41 41 40 42
22 25 19 21 18 25 27 24 21 22 27 29 28 27 28 30 23 14 20 19 24 29 32 32 31 31 30 28 27 27 24 22 25 26 28 26 17 27 44 41 42 44 43 45
17 13 20 15 18 24 30 28 24 28 27 35 33 28 29 30 23 23 19 20 23 29 31 34 32 32 32 31 30 29 27 22 22 23 29 35 23 9 29 32 50 49 48 48
21 18 23 23 22 25 26 28 26 28 30 32 25 29 26 29 22 23 25 23 22 24 27 31 30 33 35 34 33 32 30 28 25 24 24 29 28 23 25 27 38 39 44 53
25 19 18 24 23 23 24 27 31 33 37 38 39 33 26 28 22 19 20 23 23 23 23 26 28 27 30 33 35 35 32 33 29 29 29 26 28 29 31 24 12 15 24 41
20 20 21 19 26 30 23 27 15 22 26 28 28 26 23 26 24 21 16 15 20 21 22 22 23 25 24 26 29 32 34 36 34 32 32 31 25 23 24 23 21 19 12 12
Wind_Direction
225 227 227 213 217 230 241 254 264 260 261 269 331 334 358 350 349 193 291 267 246 247 232 211 178 150 136 140 138 150 137 160 169 162 162 158 160 174 177 169 173 173 189 187
224 217 216 214 201 181 270 275 266 262 296 231 241 285 278 314 304 260 250 233 264 240 194 220 194 173 141 142 142 155 131 145 158 166 161 162 180 181 182 167 175 173 185 193
213 217 194 233 202 195 239 272 263 253 264 315 323 301 260 276 279 274 257 263 236 232 218 198 204 183 172 155 153 148 153 165 148 159 156 152 157 174 169 190 186 179 185 185
222 231 212 203 225 194 229 236 257 248 257 280 281 270 258 250 272 277 291 251 223 249 238 203 212 191 177 166 168 169 164 176 171 170 159 150 149 151 156 173 188 190 186 186
198 218 222 228 216 207 199 243 261 272 268 280 285 273 254 259 297 294 297 265 260 217 225 207 192 203 178 176 174 179 185 183 179 182 166 165 166 164 166 166 176 188 197 192
15 338 342 285 259 240 204 242 248 254 253 239 212 245 247 270 255 266 297 268 280 211 215 209 206 197 199 180 175 181 189 191 191 186 172 162 160 168 170 168 167 177 191 192
86 30 359 339 270 210 198 222 251 190 241 249 250 238 251 259 256 224 280 258 183 202 218 225 196 192 199 196 189 180 189 188 203 198 191 180 173 165 161 165 168 174 181 187
346 319 307 321 295 237 220 238 227 233 252 256 248 249 244 251 243 222 225 238 209 205 229 232 215 222 193 199 203 191 185 194 201 207 205 199 185 172 174 165 164 168 180 196
201 237 268 316 251 231 222 196 298 253 264 294 270 263 244 233 234 231 227 207 217 209 211 226 223 223 213 190 216 197 199 199 203 212 210 206 205 209 193 189 189 183 179 190
184 179 293 329 320 219 240 205 221 239 251 251 268 277 283 240 244 247 216 216 209 211 201 227 230 232 216 216 215 214 209 206 208 212 218 220 213 216 207 214 198 196 206 203
220 201 238 270 278 252 208 218 233 232 238 248 256 272 261 234 241 260 209 207 196 191 216 217 227 230 234 229 216 220 221 210 212 215 219 222 226 225 225 227 220 216 211 215
222 216 218 261 259 282 246 244 243 240 243 247 254 258 275 275 264 225 230 175 208 192 206 213 217 219 236 226 221 214 226 221 221 220 218 222 225 228 232 236 232 229 221 223
257 230 225 245 253 276 257 268 281 261 253 245 255 246 282 264 254 213 50 193 191 192 174 199 213 212 224 230 225 225 217 229 223 223 226 220 223 228 232 235 236 233 237 229
250 219 227 234 266 299 301 290 258 286 265 244 258 238 258 276 289 242 309 144 151 195 179 220 215 227 232 238 227 206 216 240 237 231 228 226 224 223 229 230 233 234 235 236
251 228 219 221 276 301 295 261 251 258 260 259 252 259 272 281 314 302 309 292 254 245 219 228 235 236 244 236 239 208 198 224 235 239 235 228 228 224 228 234 233 236 238 237
256 230 221 227 246 256 271 277 252 228 245 252 264 280 276 280 294 268 295 271 240 242 236 241 249 253 238 229 241 222 225 231 230 233 238 236 228 231 227 228 233 234 239 240
265 256 244 227 230 236 250 263 261 284 235 267 267 248 256 262 279 307 259 247 268 253 240 240 245 261 242 231 233 235 237 238 217 230 236 232 231 230 231 232 232 233 236 241
274 268 261 249 241 235 243 258 275 273 268 252 262 265 279 267 276 278 263 288 258 283 259 265 261 267 282 284 289 273 277 253 242 239 232 214 224 227 230 232 235 235 236 240
263 263 261 255 245 237 245 256 263 268 261 261 279 274 280 257 289 280 264 264 269 278 268 264 267 268 275 280 282 281 267 254 247 237 231 225 205 230 237 234 236 237 241 243
253 240 257 256 250 240 240 252 259 253 274 262 261 271 290 275 272 212 306 322 278 274 270 261 261 267 271 275 288 302 282 271 265 257 258 235 233 246 235 228 238 243 245 246
253 253 265 275 244 243 248 240 248 257 266 273 266 258 262 283 261 259 283 280 269 271 279 272 269 268 274 275 279 288 300 296 280 258 250 252 252 252 249 248 244 245 244 246
257 261 264 252 241 241 249 256 258 266 266 273 274 269 272 254 287 261 265 274 261 252 255 261 266 271 273 275 275 278 284 292 300 292 303 305 312 253 242 236 244 243 243 253
254 244 238 242 242 252 251 257 256 261 266 273 275 293 287 287 301 295 283 276 265 257 257 257 256 262 269 268 269 272 276 278 281 290 292 298 294 283 210 235 246 241 249 255
229 235 233 245 259 257 267 268 265 264 273 277 270 288 286 285 287 284 284 278 267 261 256 259 259 257 261 266 267 266 268 270 269 269 271 286 291 303 322 239 224 233 243 257
231 228 239 254 258 260 263 267 264 260 267 266 277 285 283 280 278 277 274 267 262 262 261 262 264 261 256 256 258 261 256 260 260 264 268 269 282 295 300 307 283 262 247 247
234 250 247 242 255 261 255 270 276 264 266 270 277 279 275 272 278 275 267 259 254 251 253 257 260 263 262 260 254 252 250 249 250 254 260 267 266 269 280 290 296 308 283 278